User: anonymous   Login
Location: Unspecified
(0.0000°N, 0.0000°E)
Time: 09:57:08
(UTC+00:00)
Language:

Altair - Orbit

View from above orbital plane
View from above orbital plane
View from above satellite
View from above satellite

Ground track
Ground track

The orbit data is extracted from the following two-line orbital elements,

1    50U 60009B   16147.83282282 -.00000052 +00000-0 +30665-3 0  9995
2    50 047.2333 042.7748 0113362 227.3224 131.7971 12.20095701489208
Epoch (UTC): 26 May 2016 19:59:15
Eccentricity: 0.0113362
inclination: 47.2333°
perigee height: 1502 km
apogee height: 1682 km
right ascension of ascending node: 42.7748°
argument of perigee: 227.3224°
revolutions per day: 12.20095701
mean anomaly at epoch: 131.7971°
orbit number at epoch: 48920

The dashed part of the orbit path shows where the satellite is in the earth's shadow,  

DLR